Content
SEND FEEDBACK

Daily
Averages
Monthly
Summary
United States of America

GREENFIELD, MASSACHUSETTS


Home > North America > United States > Massachusetts
Elevation: 58 meters     Latitude: 42 37N     Longitude: 072 33W

WEATHER
 
SELECT A DAY
Number of Records: 217,706;   Date Range: 7/1/96 - 12/20/14
 
SHARE

PRINT THIS DATA

[ ← Previous Day ]
WEATHER ALMANAC - 12 MARCH, 2014
[ Next Day → ]
[ °F ]   °C
Weather ElementAverageHighLow
Temperature2.3 °C5.6 °C (11:52 am)-2.8 °C (11:52 pm)
Dewpoint0.2 °C2.2 °C (6:32 pm)-5 °C (11:52 pm)
Humidity86.2 %96 % (6:32 pm)65 % (9:52 am)
Barometer993.6 hPa1006.8 hPa (1:52 am)984.4 hPa (9:50 pm)
Wind Speed7.7 km/h27.8 km/h (11:52 pm)
Wind Gust40.7 km/h (11:52 pm)
Weather ElementAverage
Visibility11.3 km
Wind DirectionESE (126.8 °)

Weather ElementTotal
Precipitation22.1 mm
Heating Degree Days16.9 (Base 18.3)
Averaged from 34 records on 12 March, 2014
WEATHER CONDITIONS BREAKOUT
WIND DIRECTION BREAKOUT
WEATHER BY HOUR - 12 MARCH, 2014
[ °F ]   °C
Local TimeTemperatureDewpointHumidityBarometerVisibilityWind DirectionWind SpeedGust SpeedPrecipitationEventsConditions
1:52 AM1.1 °C-2.2 °C79 %1006.8 hPa16.1 kmNNW (330°)5.6 km/hOvercast
2:52 AM0.6 °C-2.2 °C82 %1005.8 hPa16.1 kmCalmOvercast
3:52 AM1.1 °C-2.2 °C79 %1005.1 hPa16.1 kmCalmOvercast
4:52 AM1.1 °C-2.2 °C79 %1004.7 hPa14.5 kmCalmOvercast
5:52 AM0.6 °C-1.7 °C85 %1004.7 hPa16.1 kmCalmOvercast
6:52 AM0.6 °C-1.7 °C85 %1004.7 hPa16.1 kmCalmOvercast
7:52 AM1.1 °C-2.2 °C79 %1004.7 hPa14.5 kmCalmOvercast
8:52 AM2.2 °C-1.7 °C76 %1004.1 hPa16.1 kmWNW (300°)5.6 km/hMostly Cloudy
9:52 AM5 °C-1.1 °C65 %1003 hPa16.1 kmNNE (20°)7.4 km/hMostly Cloudy
10:52 AM5 °C0 °C70 %1001.4 hPa16.1 kmENE (60°)5.6 km/h0 mmRainLight Rain
11:52 AM5.6 °C0.6 °C70 %999.3 hPa16.1 kmNNE (30°)7.4 km/h0 mmRainLight Rain
12:52 PM5 °C0.6 °C73 %998 hPa16.1 kmNorth (350°)13 km/h0 mmOvercast
1:52 PM3.9 °C1.1 °C82 %996.3 hPa9.7 kmNNE (30°)16.7 km/h0 mmRainLight Rain
2:52 PM3.3 °C1.7 °C89 %994.6 hPa11.3 kmNorth (10°)7.4 km/h0 mmOvercast
3:03 PM3.3 °C1.7 °C89 %993.6 hPa9.7 kmNNE (20°)11.1 km/h0 mmRainLight Rain
3:23 PM3.3 °C1.7 °C89 %992.9 hPa11.3 kmVariable7.4 km/h0 mmRainLight Rain
3:52 PM3.3 °C1.1 °C86 %992.6 hPa11.3 kmNNE (30°)11.1 km/h0 mmRainLight Rain
4:52 PM2.8 °C1.7 °C93 %990.5 hPa4.8 kmNorth (10°)5.6 km/h0 mmRainRain
5:02 PM2.8 °C1.7 °C93 %989.5 hPa4 kmCalm0.51 mmRainLight Rain
5:14 PM2.8 °C1.7 °C93 %988.5 hPa4.8 kmNNE (30°)9.3 km/h1.02 mmRainLight Rain
5:52 PM2.8 °C1.7 °C93 %988.1 hPa4.8 kmNNE (20°)7.4 km/h2.03 mmRainLight Rain
6:19 PM2.8 °C1.7 °C93 %986.8 hPa4 kmNNE (20°)5.6 km/h1.27 mmRainLight Rain
6:32 PM2.8 °C2.2 °C96 %986.1 hPa4.8 kmCalm2.03 mmRainRain
6:50 PM3 °C2 °C93 %985.4 hPa6.4 kmCalm2.79 mmRainRain
6:52 PM2.8 °C2.2 °C96 %986.1 hPa6.4 kmCalm3.05 mmRainRain
7:52 PM2.8 °C1.7 °C93 %985.4 hPa8 kmNNW (340°)13 km/h1.52 mmRainLight Rain
8:52 PM2.2 °C1.1 °C93 %985.1 hPa3.2 kmNNW (330°)13 km/h1.52 mmRainHeavy Rain
9:09 PM1.7 °C0.6 °C92 %984.8 hPa6.4 kmNNW (340°)14.8 km/h0.76 mmRainRain
9:21 PM1.7 °C0.6 °C92 %984.8 hPa8 kmNNW (340°)13 km/h1.27 mmRainLight Rain
9:50 PM2 °C1 °C93 %984.4 hPa14.5 kmNorth (350°)9.3 km/h1.78 mmRainLight Rain
9:52 PM2.2 °C1.1 °C93 %985.4 hPa12.9 kmNW (320°)13 km/h1.78 mmRainLight Rain
10:22 PM0.6 °C-0.6 °C92 %984.4 hPa14.5 kmNNW (340°)16.7 km/h0.25 mmRainLight Rain
10:52 PM-0.6 °C-1.7 °C92 %985.1 hPa16.1 kmNorth (350°)16.7 km/h0.51 mmOvercast
11:52 PM-2.8 °C-5 °C85 %985.8 hPa16.1 kmNNW (340°)27.8 km/h40.7 km/h0 mmOvercast
Hourly data recorded from KORE, located 0 kilometers away from Greenfield, Massachusetts







STORIES FROM OUR PARTNERS